RH
29 34 42 48 53 56 60 61 63 63 63 64 60 55 50 48 46 48 47 46 45 42 41 38 36 36 35 37 38 38 38 35 37 40 41 31 25 27 30 27 50 34 41
31 36 45 51 53 54 56 58 62 66 64 61 56 52 51 46 49 50 49 48 48 47 39 40 38 41 40 42 44 44 43 40 37 40 43 38 28 30 30 31 28 34 42
33 37 44 49 52 51 56 54 56 60 62 62 69 63 61 57 49 47 49 46 45 48 48 47 46 48 47 46 47 44 49 48 43 39 37 42 37 37 32 32 32 35 34
31 36 40 45 49 52 56 53 55 58 62 66 61 56 44 42 46 45 46 44 43 48 51 52 52 52 53 52 53 49 52 48 46 42 35 35 35 40 40 30 32 28 30
33 37 39 42 48 56 60 54 53 51 54 53 49 44 41 46 45 44 41 40 46 49 53 54 54 54 53 54 53 52 52 52 49 44 42 38 36 34 35 38 33 30 29
34 37 39 45 52 65 60 53 52 49 49 48 46 46 48 46 45 44 43 46 48 51 51 50 48 46 44 46 47 47 48 48 48 47 45 42 38 36 36 39 38 38 36
37 42 45 50 60 65 61 54 49 49 48 48 48 49 50 48 49 47 48 48 44 44 43 43 38 35 32 31 33 37 41 42 45 50 51 49 46 42 42 42 44 44 43
40 44 48 56 60 62 58 48 48 49 48 49 50 51 51 49 49 48 45 42 40 38 36 32 32 30 29 29 30 30 30 30 35 42 47 52 54 52 48 48 50 55 51
42 45 50 54 58 58 53 46 50 50 50 52 52 51 50 46 44 41 38 36 34 30 26 29 28 28 29 29 29 30 30 29 30 34 42 48 53 55 54 54 54 55 63
42 46 49 54 55 53 50 49 50 51 54 53 47 44 43 40 39 36 34 32 29 28 29 28 28 28 29 30 30 31 31 30 30 31 31 35 39 44 49 54 55 54 54
43 48 49 51 50 52 54 52 52 52 49 45 42 44 42 38 34 33 30 28 29 30 30 30 31 32 33 32 31 31 31 31 31 32 34 34 36 38 39 43 49 52 51
46 46 47 47 50 53 54 52 48 45 43 39 39 38 35 37 35 33 35 36 36 34 34 35 36 36 35 33 33 34 34 35 36 36 37 38 37 37 38 40 46 49 50
46 45 45 47 48 47 45 44 41 39 37 35 33 34 34 35 36 36 35 35 35 36 36 35 34 34 33 34 35 36 39 40 41 41 41 43 44 45 44 44 46 49 51
47 44 42 40 39 38 36 34 34 33 32 33 34 36 36 35 32 32 34 34 35 35 36 36 35 36 37 39 42 44 44 45 47 48 50 51 53 54 55 56 56 52 53
43 40 36 33 31 30 28 26 26 27 30 32 34 31 28 29 31 33 35 35 36 38 38 39 39 42 44 46 45 48 53 56 57 56 56 55 55 56 59 61 62 64 66
38 34 30 28 27 26 24 24 26 28 31 28 25 24 28 29 30 32 34 35 37 39 41 43 46 47 47 45 49 54 57 59 60 59 57 57 57 57 55 57 57 64 69
34 31 28 26 24 24 23 23 26 28 27 26 26 26 27 29 31 33 36 38 41 44 45 45 45 46 47 48 52 55 57 58 60 60 59 58 55 55 55 55 56 60 60
31 28 26 24 24 24 24 26 29 27 29 29 27 27 30 32 36 38 42 44 45 46 46 46 48 49 49 49 52 56 60 61 61 60 59 57 56 56 56 58 61 65 69
27 25 21 20 21 22 26 26 24 24 25 25 28 31 35 40 43 46 47 48 48 48 50 50 50 50 49 52 56 59 60 62 63 62 61 59 59 58 58 60 64 67 72
21 20 20 19 20 25 26 25 24 26 27 31 38 43 46 48 49 50 51 50 50 52 54 53 53 52 54 54 58 62 65 66 66 65 63 60 59 60 63 66 73 76 73
22 23 20 20 24 28 30 28 29 31 36 44 46 49 50 51 51 51 52 55 59 59 58 56 56 57 57 58 62 71 83 93 87 84 79 68 64 64 65 66 72 77 76
25 22 22 27 32 36 35 33 34 39 44 48 49 50 50 51 51 54 60 63 62 61 59 60 60 61 66 77 70 68 69 72 74 78 77 86 87 94 92 85 76 76 77
27 26 28 32 34 37 38 39 39 44 48 50 51 51 50 51 53 60 62 64 62 61 61 64 67 77 72 70 68 70 71 77 80 80 75 72 76 78 80 87 94 84 82
27 30 31 30 31 35 40 42 46 50 52 54 52 50 52 55 60 62 63 64 62 67 74 81 78 78 77 77 78 89 97 90 89 90 96 94 85 78 73 80 87 89 86
34 34 34 36 38 41 44 48 53 56 57 54 53 54 55 59 63 63 63 68 71 75 78 80 86 86 90 87 89 89 96 90 86 86 88 79 80 76 76 87 81 92 93
36 37 40 42 43 47 51 54 58 58 58 58 58 59 64 68 68 68 75 75 72 72 73 76 76 80 80 85 87 88 81 84 79 87 81 80 78 77 76 78 87 93 95
Wind_Speed
17 18 18 17 16 15 15 14 14 14 13 12 11 10 9 7 7 7 7 7 7 7 8 7 9 10 10 11 13 14 15 15 17 15 20 16 15 13 15 20 9 16 13
17 19 20 19 18 17 16 15 14 14 12 11 9 9 10 7 7 6 6 6 6 8 7 8 8 9 9 10 12 14 15 14 16 14 18 5 14 13 28 15 20 16 14
19 18 22 21 19 18 17 15 13 13 12 11 10 11 10 8 6 5 4 5 6 7 7 8 8 8 9 10 11 12 13 13 15 14 11 5 4 18 12 21 18 19 21
19 18 22 22 20 18 15 14 13 13 12 12 12 13 10 9 6 5 5 5 5 5 6 7 7 8 9 10 11 12 13 14 15 15 13 15 19 8 8 16 20 19 18
18 18 23 23 20 18 16 14 13 12 12 11 11 10 9 9 6 5 5 4 3 3 5 6 7 8 9 10 12 15 16 16 17 18 19 19 20 20 17 12 15 19 21
18 18 23 22 20 18 17 16 14 13 12 12 10 9 9 8 6 4 3 2 2 2 4 8 8 9 11 13 15 16 17 18 20 20 20 20 19 17 17 12 16 18 20
18 17 17 21 22 20 18 16 15 14 12 11 10 9 8 7 6 3 1 2 3 4 6 8 9 11 12 14 14 15 17 18 19 19 20 21 22 22 21 21 18 15 20
17 18 20 21 22 21 19 17 16 15 13 11 10 9 8 6 4 2 0 2 4 6 7 9 10 12 13 15 16 17 18 19 20 21 22 23 22 23 22 20 20 13 17
18 18 22 23 22 21 19 18 17 15 13 11 10 8 6 4 2 0 2 4 6 8 10 11 13 15 16 17 19 19 20 21 21 22 22 23 22 23 23 24 23 20 13
19 17 20 22 21 20 18 17 16 15 12 10 9 7 5 2 0 2 5 7 9 10 12 14 16 18 20 21 21 22 22 23 24 23 23 23 24 25 25 25 26 26 24
19 17 19 21 21 19 18 17 16 14 12 10 8 5 3 0 2 5 7 9 11 13 15 17 19 20 22 22 23 25 26 25 24 24 26 26 26 27 27 27 27 28 27
18 17 21 21 20 19 18 17 15 13 11 8 6 4 1 2 5 7 10 12 14 16 17 19 21 22 23 24 25 27 27 28 28 28 27 29 28 29 28 28 28 28 29
18 16 18 19 20 19 18 16 14 12 9 7 4 1 2 5 8 10 12 14 15 17 18 20 22 23 24 26 27 28 28 28 29 30 29 30 28 29 28 28 28 29 28
17 16 14 18 19 18 17 15 12 10 7 4 1 2 5 7 10 11 13 15 17 19 20 22 24 25 26 26 27 27 27 27 29 30 30 31 30 30 30 29 29 29 30
17 16 15 16 18 17 15 13 10 7 4 1 2 5 7 9 11 13 15 17 19 20 22 24 25 25 25 26 26 26 28 29 31 32 31 31 31 32 33 31 31 31 30
17 16 15 18 17 16 14 11 8 5 2 1 4 6 8 11 13 15 17 19 21 22 23 24 25 25 25 25 27 28 30 30 31 33 32 31 31 32 32 32 34 33 33
17 16 15 17 16 14 11 9 6 4 1 2 5 8 10 13 15 17 19 21 22 23 24 25 25 26 26 26 27 28 30 31 31 32 34 33 29 29 30 32 33 34 35
16 15 17 16 14 12 9 7 4 2 1 4 7 10 12 14 16 18 20 22 22 24 25 25 26 26 27 27 28 29 30 31 31 31 32 33 32 30 30 30 31 31 32
18 18 17 15 13 10 8 5 2 1 4 7 9 11 13 16 17 19 21 22 23 24 25 25 26 26 27 28 28 28 28 29 31 30 30 31 31 31 31 32 31 31 30
20 18 16 14 12 9 6 3 2 3 6 9 11 13 14 16 18 20 21 23 24 25 25 25 25 26 27 27 27 27 28 30 31 30 30 30 31 32 32 33 29 29 28
20 17 14 12 10 7 4 2 3 5 8 11 13 14 15 17 18 20 21 23 23 24 24 24 23 24 24 27 28 29 31 29 31 30 31 30 31 33 33 31 30 30 31
17 14 14 11 8 5 3 3 5 7 9 12 14 15 16 17 18 19 20 21 22 22 22 23 24 23 24 22 28 31 29 30 32 32 32 31 32 35 35 36 36 34 32
15 12 11 9 5 3 3 5 7 9 11 13 15 16 17 17 17 18 18 19 20 20 21 22 23 24 23 25 26 27 29 31 33 32 35 37 34 33 33 30 29 28 26
13 11 9 6 3 2 4 6 9 10 12 14 15 16 16 16 15 16 17 17 19 19 20 21 24 24 25 25 25 28 29 30 31 31 32 31 34 33 33 31 27 26 24
11 8 5 3 3 5 6 7 9 10 12 14 15 15 14 15 16 16 16 18 19 20 24 22 23 24 23 24 30 32 33 31 30 33 26 25 24 23 23 22 24 24 22
8 6 3 3 5 7 7 8 8 10 12 13 13 13 14 15 17 17 17 15 22 20 21 21 22 22 25 27 30 30 29 29 27 23 21 21 21 21 22 22 23 19 18
Wind_Direction
177 172 169 167 166 165 162 160 158 159 158 159 157 151 142 128 106 88 77 69 62 55 51 44 34 29 24 17 12 6 1 360 355 344 339 330 338 315 355 330 319 330 328
173 174 173 174 175 170 168 168 167 168 170 170 168 159 145 129 122 106 87 76 66 57 49 44 35 25 16 11 7 4 355 352 353 350 325 333 323 348 334 318 326 313 332
178 177 176 179 179 175 171 169 167 169 172 168 155 145 140 136 130 124 99 76 67 58 53 41 29 15 9 359 355 353 350 337 338 345 332 330 323 319 309 323 316 320 321
183 178 178 178 179 176 168 165 160 160 159 160 161 162 164 156 139 128 108 87 71 61 42 30 14 3 352 343 338 334 328 323 317 316 311 299 297 306 300 302 299 310 305
183 176 179 177 176 167 164 160 155 152 154 158 162 157 143 134 131 122 116 103 79 60 20 9 357 348 338 327 323 321 316 311 306 308 309 302 299 293 295 303 303 298 304
176 173 176 170 166 165 162 157 155 149 146 144 145 143 136 134 130 122 121 83 42 2 348 346 340 336 330 327 323 318 313 309 305 302 298 296 297 297 295 295 301 301 302
171 169 169 168 166 166 161 160 157 150 145 137 132 127 124 123 122 121 98 1 335 325 326 335 335 331 325 321 319 315 310 306 303 300 296 292 289 291 292 295 295 293 297
170 169 168 168 167 164 162 162 158 150 147 141 131 128 132 138 137 133 80 317 319 317 321 323 322 317 315 314 314 311 306 304 303 299 295 291 285 283 283 284 293 294 291
170 168 168 166 165 163 164 163 158 154 150 145 142 141 136 132 143 315 323 314 312 310 313 314 312 310 309 309 308 305 304 303 301 297 294 289 286 281 280 278 279 283 293
168 166 164 162 161 161 161 159 159 155 151 145 143 143 144 143 238 314 310 307 308 310 310 308 307 306 305 305 304 301 300 299 296 294 293 292 289 287 284 280 278 277 278
163 157 158 157 155 154 156 156 153 147 144 144 144 142 141 171 306 311 308 310 309 308 306 304 301 299 300 300 299 296 295 293 292 291 289 287 287 286 284 281 279 277 274
153 156 153 151 151 154 153 151 147 146 144 143 141 145 181 302 310 309 309 309 305 303 300 299 296 296 296 296 296 296 295 293 290 288 288 287 288 285 284 283 278 275 271
152 150 150 154 153 152 149 147 146 142 141 142 147 177 295 304 307 308 307 305 303 300 298 298 296 295 296 296 294 294 294 293 290 288 287 287 288 286 284 282 281 279 276
154 155 154 152 151 150 148 146 143 143 141 140 149 299 305 309 308 308 305 303 302 300 299 297 296 296 296 295 295 294 294 295 293 291 289 288 285 282 281 280 282 284 281
157 155 151 149 148 145 145 144 141 142 143 156 293 302 308 309 309 306 304 303 301 300 299 298 297 298 297 296 296 296 295 294 293 291 289 287 285 285 285 283 282 278 276
154 152 148 146 148 146 145 141 141 145 156 253 293 306 310 309 306 304 304 304 304 302 300 298 299 298 294 294 295 295 296 294 293 292 292 290 290 289 285 284 284 279 278
153 149 147 147 144 142 142 143 144 150 200 289 303 309 307 305 305 306 307 306 304 303 300 300 299 298 296 297 298 298 297 294 293 292 291 292 289 288 288 288 284 282 280
146 147 145 137 134 132 130 133 136 145 277 307 306 305 306 306 308 307 307 305 305 303 302 300 300 300 299 301 302 302 300 296 294 292 291 289 289 288 288 289 287 286 281
142 139 138 131 129 129 127 124 121 5 314 306 304 309 310 309 308 306 305 305 304 301 299 301 302 301 302 304 304 304 302 298 296 294 291 290 289 289 288 288 286 287 286
131 130 128 126 124 116 110 89 28 325 308 312 312 310 309 307 304 302 304 303 302 301 303 303 303 304 305 308 309 308 302 298 296 294 290 289 289 289 290 288 288 288 288
127 123 120 114 110 104 86 48 336 320 320 313 309 308 305 301 300 302 304 303 302 301 302 305 310 309 308 309 309 310 309 301 298 296 294 289 291 293 291 289 284 282 286
116 113 111 106 100 87 53 354 329 319 311 307 304 302 302 301 301 300 300 301 304 305 308 313 311 310 310 314 314 312 310 309 309 307 306 305 305 297 292 290 286 284 285
110 109 109 107 98 73 16 323 314 312 307 304 302 302 302 301 300 302 304 307 307 308 312 312 314 316 319 316 314 315 314 313 307 306 304 304 303 299 296 292 297 284 281
113 111 105 95 77 15 332 313 311 309 304 302 303 304 302 303 303 306 306 304 311 316 314 317 317 317 316 315 318 314 313 310 304 300 298 298 302 294 294 287 282 275 270
109 102 94 68 4 337 324 315 308 305 303 304 304 304 305 308 308 308 308 311 310 312 314 315 313 311 313 317 318 319 318 321 320 319 317 316 312 313 312 300 297 269 266
113 98 63 3 331 320 313 309 307 307 307 305 307 310 311 314 311 311 310 312 311 312 313 314 313 314 315 319 320 322 325 327 330 329 321 317 317 315 317 315 316 295 279